Regional Weather Roundup
Issued by NWS

Home | Current Version | Previous Version | Text Only | Print | Product List | Glossary Off
Versions: 1 2 3 4 5 6 7 8 9 10 11 12 13 14 15 16 17 18 19 20 21 22 23 24 25 26 27 28 29 30 31 32 33 34 35 36 37 38 39 40 41 42 43 44 45 46 47 48 49 50

000
ASUS43 KDTX 090101
RWRMI
MICHIGAN HOURLY REGIONAL WEATHER ROUNDUP
NATIONAL WEATHER SERVICE DETROIT/PONTIAC MI
800 PM EST THU DEC 08 2016

NOTE: "FAIR" INDICATES FEW OR NO CLOUDS BELOW 12,000 FEET WITH NO
SIGNIFICANT WEATHER AND/OR OBSTRUCTION TO VISIBILITY.

MIZ047>049-052>055-059>063-066>070-074>076-081>083-090200-
SOUTHEAST LOWER MICHIGAN

CITY           SKY/WX    TMP DP  RH WIND       PRES   REMARKS
ADRIAN         MOCLDY    21  17  84 W13G21    30.25F WCI   9
ALMA           FLURRIES  28  25  86 W15       30.18R WCI  17
ANN ARBOR      CLOUDY    24  19  81 SW15      30.21R WCI  11
BAD AXE        CLOUDY    29  24  79 W14       30.10R WCI  18
CARO           PTCLDY    26  23  87 W14       30.13R WCI  15
DETROIT CITY   CLOUDY    27  21  78 W13G22    30.19R WCI  16
DETROIT        CLOUDY    26  20  77 SW15      30.22R WCI  14
FLINT          CLOUDY    27  21  78 W14       30.16R WCI  16
GROSSE ILE     CLOUDY    25  19  78 W17G23    30.22R WCI  11
HILLSDALE      FLURRIES  21  18  86 W13       30.22S WCI   9
HOWELL         CLOUDY    27  22  82 W14G21    30.18R WCI  15

CITY           SKY/WX    TMP DP  RH WIND       PRES   REMARKS
JACKSON        CLOUDY    23  18  81 W15       30.21S WCI  10
LAMBERTVILLE   MOCLDY    24  17  77 W10G21    30.26S WCI  13
LANSING        FLURRIES  26  21  81 W13       30.21R WCI  15
LAPEER         NOT AVBL
MASON          CLOUDY    26  23  89 W7        30.21R WCI  18
MONROE         CLOUDY    24  19  82 W14G24    30.24R WCI  11
MT. CLEMENS    CLOUDY    28  21  74 W15G25    30.14S WCI  16
PONTIAC        FLURRIES  26  20  77 W13G20    30.15R WCI  15
PORT HOPE        N/A     32  23  69 NW22G31   30.07R WCI  19
PORT HURON     CLOUDY    28  21  74 W7        30.14R WCI  21
TRI CITIES     CLOUDY    28  24  85 W10       30.17R WCI  19
MIDLAND        FLURRIES  30  23  77 NW3       30.16R
TROY           CLOUDY    29  20  69 W14G20    30.19S WCI  18
SAGINAW HB     LGT SNOW  30  23  74 W13       30.15R WCI  20
$$
MIZ043>046-050>051-056>058-064>065-071>073-077>080-090200-
SOUTHWEST LOWER MICHIGAN

CITY           SKY/WX    TMP DP  RH WIND       PRES   REMARKS
BATTLE CREEK   FLURRIES  25  22  88 W13       30.24R WCI  14
BENTON HARBOR  FLURRIES  29  19  66 W16G24    30.31R WCI  17
BIG RAPIDS     MOCLDY    27  24  89 W5        30.17R WCI  21
COLDWATER      FLURRIES  22  18  87 W13G20    30.26S WCI  10
FREMONT        LGT SNOW  29  26  89 W9        30.20S WCI  20
HOLLAND        FLURRIES  31  19  61 W14       30.25R WCI  21
GRAND RAPIDS   CLOUDY    27  23  85 W10       30.22R WCI  17
IONIA          FAIR      25  23  92 W9        30.20R WCI  15
KALAMAZOO      LGT SNOW  25  21  85 SW12      30.26R FOG     WCI  14
LUDINGTON      LGT SNOW  29  28  94 N7G18     30.20S WCI  22
MARSHALL       LGT SNOW  25  22  89 SW9       30.23S WCI  15
MOUNT PLEASANT MOCLDY    28  24  84 W8G17     30.16R WCI  20
MUSKEGON       FLURRIES  32  23  69 W16G24    30.23R WCI  21
SOUTH HAVEN    FLURRIES  30  21  70 W12G20    30.28R WCI  20
$$
MIZ016>042-090200-
NORTHERN LOWER MICHIGAN

CITY           SKY/WX    TMP DP  RH WIND       PRES   REMARKS
ALPENA         LGT SNOW  26  21  81 NW7       30.09R WCI  18
BEAVER ISLAND  MOCLDY    29  22  76 NW12G22   30.15R WCI  19
BELLAIRE       LGT SNOW  28  25  87 NW5       30.15R WCI  23
CADILLAC       LGT SNOW  26  22  84 NW7       30.12R WCI  19
CHARLEVOIX     MOCLDY    30  23  75 NW17G26   30.17R WCI  18
FRANKFORT      FLURRIES  31  26  83 N7        30.18R WCI  24
GAYLORD        LGT SNOW  25  19  78 VRB3      30.09R
GRAYLING       LGT SNOW  26  21  82 NW5       30.11S WCI  20
HARBOR SPRINGS CLOUDY    29  19  66 NW6       30.13R WCI  23
HOUGHTON LAKE  CLEAR     23  19  85 NW7       30.12R WCI  15
MANISTEE       CLOUDY    30  22  72 NW7       30.19R WCI  23
OSCODA         CLEAR     28  18  66 NW9       30.10R WCI  19
PELLSTON       CLOUDY    28  18  66 NW13      30.12R WCI  17
ROGERS CITY    MOCLDY    29  21  70 NW15G22   30.10R WCI  18
TRAVERSE CITY  LGT SNOW  29  26  89 NW15G22   30.16R VSB 3/4 WCI  18
$$
MIZ007>008-015-090200-
EASTERN UPPER MICHIGAN

CITY           SKY/WX    TMP DP  RH WIND       PRES   REMARKS
KINROSS        LGT SNOW  23  20  88 N7        30.09R FOG     WCI  15
MACKINAC ISLAN FLURRIES  26  22  84 NW9G16    30.10R WCI  16
NEWBERRY       CLOUDY    25  17  69 NW8       30.11S WCI  17
S. S. MARIE    MOCLDY    25  13  60 VRB7      30.09R WCI  17
MUNISING         N/A     31  19  61 N20       30.17R WCI  19
$$
MIZ004>006-011>014-085-090200-
CENTRAL UPPER MICHIGAN

CITY           SKY/WX    TMP DP  RH WIND       PRES   REMARKS
MANISTIQUE     MOCLDY    24  23  95 NW8       30.17R WCI  16
ESCANABA       CLEAR     26  18  71 NW9       30.22R WCI  17
MENOMINEE      CLEAR     27  19  72 NW6       30.25  WCI  20
SAWYER-GWINN   PTCLDY    21  18  86 NW13G18   30.18R WCI   9
$$
MIZ001>003-009>011-084-090200-
WESTERN UPPER MICHIGAN

CITY           SKY/WX    TMP DP  RH WIND       PRES   REMARKS
IRON MOUNTAIN  MOCLDY    23  16  74 NW9       30.21R WCI  13
HOUGHTON       FLURRIES  22  13  68 NW15      30.23R WCI   9
COPPER HARBOR    N/A     26  22  84 N23G30    30.23R WCI  11
IRONWOOD       FLURRIES  22  16  78 NW16G25   30.30R WCI   8
$$

ABBREVIATIONS USED IN REMARKS
   TC - TEMPERATURE IN CELSIUS
  WCI - WIND CHILL INDEX
   HX - HEAT INDEX
  VSB - VISIBILITY





USA.gov is the U.S. government's official web portal to all federal, state and local government web resources and services.